ST 2

导读

ST 2卫星于2011年5月20日08:00由STCT发射,作为区域内重要的通信卫星,它主要承担商业通信传输服务,覆盖东南亚等关键区域,可提供广播电视转播、宽带网络接入、应急通信保障等多种服务,服役以来稳定运行,有效提升了区域通信基础设施覆盖能力,满足当地民众及各类机构的通信需求,为区域数字基础设施建设提供了重要空间支撑。

Basic Information
目录编号:
37606
目录名称:
ST 2
国际标识:
2011-022B
轨道中心:
EARTH
卫星名称:
ST 2
卫星全名:
--
卫星状态:
在轨 (已飞行5507 天)
发射日期:
2011-05-20 UTC
国别 :
(STCT)
星等 :
--
Orbit Information
数据来源 国际轨道数据 AOE轨道数据
星历时间 2026-06-17T02:33:54+0800
1天前
查看轨道信息
2026-06-17T05:00:00+0800
21小时前
查看轨道信息
半长轴 42164.7km 42164.56km
偏心率 0.0001603 0.0001469
轨道倾角 0.019° 0.011°
近地点辐角 61.555° 58.081°
升交点赤经 35.375° 37.103°
平近点角 174.593° 212.966°
近地点 35779.803km 35780.229km
远地点 35793.323km 35792.617km
周期 1436.095分钟 1436.088分钟
每日圈数 1.002719 1.002724
Detailed Information
使用方式:
暂无
2D Orbit Map
3D Orbit Map
Orbit Altitude Analysis Chart
Orbit Inclination Analysis Chart
Orbit Comprehensive Analysis Chart
View Comprehensive Chart